[[{"header":{"parameterUnit":"m.s-1","parameterCategory":1,"la1":30.2991,"la2":30.254,"lo1":-89.0895,"lo2":-89.0444,"dy":0.0017,"dx":0.0017,"nx":28,"ny":28,"refTime":"2023-08-09T09:00:00:Z","depth":0,"parameterNumber":2,"parameterNumberName":"U-component_of_WINDS"},"data":[0,0,0,0,0,0,0,0,0,0,0,0,0,0,0,0,0,0,0,0,0,0,0,0,0,0,0,0,0,0,0,0,0,0,0,0,0,0,0,0,0,0,0,0,0,0,0,0,0,0,0,0,0,0,0,0,0,0,6.2145,6.2147,0,6.2321,6.2323,6.2325,6.2276,6.2272,6.2269,6.2266,6.2446,6.2454,6.2462,0,0,0,0,0,0,0,0,0,0,0,0,0,6.1766,6.1773,6.2145,6.2147,6.215,6.2321,6.2323,6.2326,6.2277,6.2272,6.2268,6.2264,6.2443,6.2453,6.2463,0,0,0,0,0,0,0,0,0,0,0,0,0,6.1935,6.1775,6.2145,6.2146,6.2148,6.232,6.2323,6.2326,6.2278,6.2272,6.2267,6.2262,6.244,6.2452,6.2464,6.2647,0,0,6.2501,6.2507,0,0,0,0,0,0,0,0,6.1925,6.1949,6.2143,6.2146,6.2148,6.2271,6.2255,6.2434,6.2279,6.2228,6.2265,6.2259,6.2392,6.2408,6.2453,6.2655,6.2663,6.2503,6.251,6.2515,6.2519,0,0,0,0,0,0,0,6.1914,6.1941,6.2215,6.2146,6.2149,6.2137,6.2155,6.2289,6.2338,6.2232,6.2229,6.2251,6.2393,6.2441,6.2457,6.2665,6.2502,6.2513,6.2521,6.2525,6.3022,6.3028,0,0,0,0,0,0,6.19,6.1932,6.2209,6.222,6.2021,6.2148,6.2168,6.2237,6.2337,6.2347,6.2255,6.2248,6.2423,6.2443,6.2463,6.268,6.2515,6.2527,6.2534,6.3017,6.3024,6.303,0,0,0,0,0,0,6.1892,6.1925,6.2202,6.2075,6.2109,6.216,6.2238,6.2243,6.2292,6.2354,6.2362,6.2296,6.242,6.2446,6.26,6.2686,6.2532,6.2543,6.301,6.3019,6.3027,6.3117,0,0,0,0,0,0,6.1882,6.1923,6.1993,6.2077,6.2116,6.2337,6.2243,6.2251,6.2313,6.2305,6.2394,6.2404,6.2417,6.2582,6.2613,6.27,6.2553,6.3002,6.3014,6.3024,6.3107,6.3128,6.3146,0,0,0,0,0,6.1868,6.2013,6.1997,6.2031,6.2205,6.2342,6.2365,6.2377,6.232,6.239,6.243,6.2401,6.2672,6.2599,6.2632,6.2724,6.2997,6.301,6.3023,6.3098,6.3124,6.3146,0,0,0,0,0,0,6.1938,6.2024,6.2007,6.2183,6.2256,6.2334,6.2423,6.2405,6.2495,6.2484,6.2496,6.2517,6.2674,6.2715,6.2632,6.2904,6.2826,6.2846,6.2871,6.2896,6.2916,6.2901,6.2563,0,0,0,0,0,6.1974,6.2079,6.2148,6.2296,6.2333,6.2372,6.2432,6.2436,6.2511,6.2542,6.2592,6.2667,6.2768,6.2835,6.2932,6.3113,6.313,6.3193,6.3213,6.3229,6.3245,6.3341,6.3368,6.3074,6.3073,6.3073,0,0,6.2049,6.2109,6.2174,6.2311,6.2368,6.2475,6.2398,6.2515,6.2594,6.256,6.2707,6.2748,6.2831,6.2999,6.3076,6.3038,6.3331,6.3245,6.3258,6.3266,6.3357,6.3385,6.341,6.3083,6.3081,6.3079,0,0,6.224,6.2297,6.2425,6.2483,6.2569,6.2594,6.2625,6.2705,6.273,6.2879,6.2854,6.2948,6.3124,6.3184,6.3237,6.3448,6.3424,6.348,6.3582,6.3675,6.3698,6.3718,6.379,6.3816,6.3497,6.3497,6.3497,0,6.2322,6.2482,6.2493,6.2612,6.2672,6.2645,6.2773,6.2829,6.2943,6.2985,6.2941,6.3159,6.3214,6.3393,6.3444,6.349,6.3523,6.3469,6.3694,6.3714,6.3734,6.3802,6.383,6.3503,6.3503,6.3502,6.3501,0,6.2578,6.2689,6.2782,6.2891,6.2962,6.3085,6.3114,6.3184,6.3181,6.321,6.336,6.3425,6.3533,6.3577,6.3576,6.3756,6.3729,6.369,6.3611,6.3767,6.3832,6.3859,6.3512,6.351,6.3508,6.3506,0,0,6.2817,6.2929,6.2963,6.3011,6.3103,6.3189,6.331,6.3415,6.3474,6.3554,6.3654,6.3802,6.3765,6.3826,6.3831,6.3913,6.4072,6.3863,6.3865,6.3897,6.427,6.4297,6.4327,6.4057,6.4062,6.4067,6.4262,0,6.3013,6.3226,6.3238,6.343,6.3531,6.3507,6.3612,6.368,6.371,6.3799,6.3833,6.3936,6.3882,6.3918,6.3998,6.4036,6.4147,6.4022,6.4149,6.4153,6.4125,6.4362,6.4391,6.4572,6.4288,6.4292,6.4295,0,6.327,6.3355,6.3557,6.3633,6.3676,6.377,6.3865,6.3953,6.4028,6.4044,6.4111,6.4104,6.4226,6.4145,6.4313,6.4228,6.428,6.4307,6.4314,6.4324,6.4231,6.4375,6.4631,6.4657,6.4336,6.4333,6.433,0,6.342,6.3586,6.3727,6.3769,6.3862,6.3928,6.3969,6.404,6.4101,6.4185,6.4224,6.4322,6.4375,6.4451,6.447,6.4409,6.4636,6.4557,6.4651,6.465,6.4698,6.4694,6.4962,6.4737,6.4737,6.4736,6.4736,0,6.3636,6.3759,6.3795,6.3882,6.4019,6.4032,6.4167,6.4204,6.4267,6.4359,6.4345,6.4432,6.4454,6.4545,6.4561,6.4695,6.472,6.4735,6.4737,6.4735,6.4732,6.4767,6.4754,6.4744,6.4742,6.4741,6.4739,0,6.3825,6.3855,6.4006,6.4081,6.4102,6.42,6.4263,6.4345,6.4373,6.449,6.4519,6.4562,6.4668,6.4695,6.4823,6.4833,6.4991,6.4983,6.4965,6.4964,6.5054,6.5044,6.5352,6.5392,6.5144,6.5146,6.5148,0,6.396,6.4054,6.4138,6.4198,6.4242,6.4341,6.4402,6.4419,6.4484,6.4576,6.4647,6.4751,6.4834,6.5005,6.5047,6.5144,6.5136,6.5237,6.515,6.5144,6.5133,6.5126,6.5134,6.5253,6.5256,6.5258,6.5259,0,6.4194,6.4203,6.4293,6.4387,6.4461,6.4537,6.4609,6.4659,6.4686,6.4759,6.4867,6.4932,6.506,6.5163,6.526,6.5302,6.5285,6.5287,6.5313,6.5309,6.5294,6.53,6.5006,6.5279,6.5277,6.5276,6.5275,6.5274,6.4358,6.4439,6.4509,6.4609,6.4665,6.4732,6.4812,6.4849,6.4939,6.5044,6.5049,6.5165,6.5236,6.5364,6.5411,6.5502,6.5471,6.551,6.5519,6.5527,6.5533,6.5282,6.552,6.5519,6.5519,6.5519,6.5518,0,6.4587,6.4631,6.4723,6.4823,6.4901,6.4879,6.4957,6.5023,6.5125,6.5193,6.5275,6.5397,6.5496,6.5546,6.5644,6.5706,6.5701,6.5731,6.5725,6.5734,6.5557,6.5523,6.5734,6.5734,6.5734,6.5734,6.5734,6.5734,6.4716,6.4851,6.4868,6.503,6.5073,6.5186,6.5232,6.5293,6.5347,6.5483,6.5565,6.5597,6.5657,6.5759,6.5848,6.586,6.5895,6.5929,6.5937,6.577,6.5747,6.5726,6.5694,6.5937,6.5938,6.6106,6.6107,6.6108]},{"header":{"parameterUnit":"m.s-1","parameterCategory":1,"la1":30.2991,"la2":30.254,"lo1":-89.0895,"lo2":-89.0444,"dy":0.0017,"dx":0.0017,"nx":28,"ny":28,"refTime":"2023-08-09T09:00:00:Z","depth":0,"parameterNumber":3,"parameterNumberName":"V-component_of_WINDS"},"data":[0,0,0,0,0,0,0,0,0,0,0,0,0,0,0,0,0,0,0,0,0,0,0,0,0,0,0,0,0,0,0,0,0,0,0,0,0,0,0,0,0,0,0,0,0,0,0,0,0,0,0,0,0,0,0,0,0,0,3.1767,3.1768,0,3.187,3.1871,3.1873,3.185,3.1848,3.1846,3.1844,3.195,3.1954,3.1959,0,0,0,0,0,0,0,0,0,0,0,0,0,3.1549,3.1554,3.1767,3.1768,3.177,3.187,3.1871,3.1873,3.185,3.1848,3.1846,3.1843,3.1948,3.1954,3.1959,0,0,0,0,0,0,0,0,0,0,0,0,0,3.1647,3.1555,3.1767,3.177,3.1772,3.187,3.1871,3.1873,3.1851,3.1848,3.1845,3.1842,3.1947,3.1953,3.196,3.2061,0,0,3.1981,3.1984,0,0,0,0,0,0,0,0,3.1642,3.1655,3.1769,3.177,3.1772,3.1844,3.1833,3.1936,3.1852,3.1821,3.1844,3.1841,3.1917,3.1926,3.1952,3.2066,3.207,3.1982,3.1986,3.1989,3.1991,0,0,0,0,0,0,0,3.1635,3.1651,3.1808,3.177,3.1772,3.1767,3.1777,3.1853,3.1884,3.1823,3.1822,3.1834,3.1918,3.1945,3.1954,3.2072,3.1982,3.1988,3.1992,3.1995,3.2271,3.2274,0,0,0,0,0,0,3.1627,3.1645,3.1805,3.1811,3.1699,3.1773,3.1785,3.1824,3.1883,3.1889,3.1837,3.1833,3.1935,3.1946,3.1958,3.2079,3.1989,3.1996,3.2,3.2268,3.2272,3.2276,0,0,0,0,0,0,3.1622,3.1641,3.18,3.1728,3.1748,3.178,3.1824,3.1828,3.1855,3.1893,3.1899,3.186,3.1933,3.1948,3.2035,3.2082,3.1999,3.2005,3.2265,3.2269,3.2274,3.2322,0,0,0,0,0,0,3.1616,3.164,3.1679,3.1729,3.1752,3.1876,3.1827,3.1832,3.1867,3.1863,3.1916,3.1922,3.1932,3.2025,3.2042,3.209,3.201,3.226,3.2267,3.2272,3.2316,3.2327,3.2337,0,0,0,0,0,3.1608,3.1689,3.1681,3.17,3.1801,3.1879,3.1892,3.1902,3.1871,3.191,3.1934,3.192,3.2074,3.2034,3.2053,3.2104,3.2258,3.2265,3.2272,3.2311,3.2325,3.2337,0,0,0,0,0,0,3.1644,3.1695,3.1687,3.1786,3.1828,3.1875,3.1925,3.1917,3.1969,3.1963,3.1972,3.1985,3.2073,3.2097,3.2051,3.2203,3.2161,3.2173,3.2185,3.2198,3.2209,3.2201,3.2016,0,0,0,0,0,3.1663,3.1722,3.1764,3.1847,3.1868,3.1893,3.1927,3.1931,3.1975,3.1993,3.2024,3.2067,3.2125,3.2163,3.2218,3.2319,3.233,3.2363,3.2374,3.2382,3.2392,3.2446,3.2461,3.2299,3.2299,3.2299,0,0,3.1703,3.1739,3.1776,3.1855,3.1888,3.1949,3.1908,3.1975,3.202,3.2003,3.2087,3.2111,3.2159,3.2253,3.2296,3.2276,3.2439,3.2392,3.2398,3.2403,3.2455,3.247,3.2484,3.2304,3.2303,3.2302,0,0,3.1808,3.1841,3.1913,3.1947,3.1997,3.2013,3.203,3.2078,3.2093,3.2177,3.2166,3.2219,3.2319,3.2354,3.2384,3.25,3.2489,3.2518,3.2574,3.2626,3.2639,3.265,3.2691,3.2705,3.2527,3.2527,3.2528,0,3.1852,3.1943,3.1951,3.2018,3.2053,3.204,3.2113,3.2145,3.2211,3.2235,3.2212,3.2336,3.2368,3.2469,3.2497,3.2523,3.2542,3.2512,3.2636,3.2648,3.2658,3.2697,3.2712,3.2531,3.253,3.253,3.253,0,3.1994,3.2057,3.2109,3.2173,3.2213,3.2283,3.2301,3.2341,3.2341,3.2358,3.2443,3.2481,3.2543,3.2567,3.2568,3.2669,3.2654,3.2634,3.2591,3.2677,3.2713,3.2728,3.2535,3.2534,3.2533,3.2532,0,0,3.2125,3.2191,3.221,3.2238,3.2292,3.2341,3.2409,3.247,3.2503,3.2549,3.2606,3.269,3.267,3.2705,3.2709,3.2755,3.2843,3.2728,3.273,3.2748,3.2955,3.297,3.2988,3.2836,3.2839,3.2841,3.2951,0,3.2234,3.2355,3.2363,3.2472,3.253,3.2518,3.2577,3.2616,3.2634,3.2686,3.2705,3.2764,3.2735,3.2755,3.28,3.2823,3.2885,3.2815,3.2889,3.2891,3.2877,3.3007,3.3024,3.3126,3.2965,3.2968,3.2969,0,3.2378,3.2427,3.2541,3.2586,3.261,3.2664,3.2719,3.2768,3.2812,3.2822,3.286,3.2857,3.2927,3.2882,3.2977,3.2929,3.2959,3.2975,3.2979,3.2986,3.2936,3.3017,3.3159,3.3174,3.2992,3.299,3.2989,0,3.2461,3.2556,3.2636,3.266,3.2715,3.2752,3.2776,3.2817,3.2852,3.29,3.2923,3.2979,3.301,3.3052,3.3064,3.3031,3.3159,3.3115,3.3169,3.3168,3.3197,3.3195,3.3344,3.3216,3.3216,3.3216,3.3215,0,3.2582,3.2652,3.2674,3.2723,3.2801,3.281,3.2887,3.2909,3.2945,3.2998,3.2991,3.304,3.3053,3.3105,3.3115,3.3192,3.3206,3.3215,3.3217,3.3216,3.3215,3.3236,3.3229,3.322,3.3219,3.3218,3.3217,0,3.2688,3.2706,3.2792,3.2836,3.2848,3.2904,3.2941,3.2988,3.3004,3.3071,3.3088,3.3113,3.3174,3.319,3.3263,3.3269,3.336,3.3355,3.3345,3.3345,3.3397,3.3392,3.3566,3.3589,3.3446,3.3447,3.3448,0,3.2764,3.2818,3.2867,3.2901,3.2927,3.2984,3.3019,3.3029,3.3067,3.3119,3.316,3.322,3.3268,3.3365,3.339,3.3445,3.3442,3.3499,3.345,3.3447,3.3442,3.3439,3.3444,3.3508,3.351,3.3511,3.3512,0,3.2897,3.2902,3.2954,3.3009,3.3052,3.3095,3.3137,3.3166,3.3181,3.3224,3.3285,3.3323,3.3396,3.3455,3.3511,3.3535,3.3526,3.3527,3.3542,3.3542,3.3534,3.3538,3.337,3.3523,3.3522,3.3521,3.3521,3.352,3.299,3.3037,3.3078,3.3136,3.3168,3.3207,3.3253,3.3274,3.3326,3.3387,3.3389,3.3456,3.3497,3.357,3.3598,3.3649,3.3632,3.3655,3.366,3.3665,3.367,3.3525,3.366,3.3659,3.3659,3.3659,3.3659,0,3.3122,3.3147,3.32,3.3258,3.3303,3.3291,3.3336,3.3374,3.3433,3.3472,3.3519,3.3589,3.3646,3.3675,3.3731,3.3767,3.3764,3.3782,3.3779,3.3785,3.3682,3.3663,3.3783,3.3783,3.3783,3.3783,3.3783,3.3783,3.3196,3.3274,3.3284,3.3377,3.3402,3.3468,3.3494,3.353,3.3561,3.3639,3.3686,3.3705,3.3739,3.3798,3.3849,3.3856,3.3877,3.3896,3.3901,3.3805,3.3792,3.378,3.3762,3.39,3.3901,3.3999,3.4,3.4]}]]